Location: Haliburton Scout Reserve
(45.0900°N, 78.3200°W)
Time: 19:42:44
(UTC-04:00)

NOAA 15 - Visible Passes

Search period start: 19 April 2025 00:00
Search period end: 29 April 2025 00:00
Orbit: 794 x 810 km, 98.5° (Epoch: 19 April)

Date Brightness Start Highest point End Pass type
(mag) Time Alt. Az. Time Alt. Az. Time Alt. Az.
19 Apr 7.3 21:14:27 10° SW 21:17:42 16° W 21:20:58 10° NW visible
20 Apr 6.8 20:46:55 10° SSW 20:51:22 27° W 20:55:50 10° NW visible
23 Apr 7.3 21:09:37 10° SW 21:13:07 18° W 21:16:39 10° NW visible
24 Apr 6.7 20:42:13 10° SSW 20:46:48 30° W 20:51:23 10° NW visible
26 Apr 7.6 21:33:31 10° WSW 21:34:58 11° W 21:36:24 10° WNW visible
27 Apr 7.2 21:04:49 10° SW 21:08:32 19° W 21:12:17 10° NW visible
